Flag for Canada Weather past 2 weeks in Bathurst, New Brunswick, Canada

Now
57 °F

Partly sunny.


Feels Like: 56 °F
Forecast: 58 / 74 °F
Wind: 7 mph from Northwest

Location: Bathurst Airport

Current Time: Jul 24, 2014 at 8:08:59 AM

Latest Report: Jul 24, 2014 at 7:00 AM


Visibility: 15 mi

Pressure: 29.78 "Hg

Humidity: 88%

Dew point: 54 °F

Location of BathurstLocation

Historic Weather in Bathurst — Graph

°F

Bathurst temperature yesterday

Maximum temperature yesterday: 90 °F (at 2:00 PM)
Minimum temperature yesterday: 68 °F (at 2:00 AM)
Average temperature yesterday: 76 °F

Past Weeks' High & Low Weather Summary

 TemperatureHumidityPressure
High90 °F (Jul 23, 2:00 PM)100% (Jul 11, 6:00 AM)30.25 "Hg (Jul 11, 6:00 AM)
Low48 °F (Jul 11, 6:00 AM)35% (Jul 12, 3:00 PM)29.58 "Hg (Jul 23, 4:00 PM)
Average70 °F70%29.92 "Hg
* Reported Jul 9 6:00 AM — Jul 24 6:00 AM, Bathurst, Weather by CustomWeather, © 2014

Note: Actual official high and low records may vary slightly from our data, if they occured in-between our weather recording intervals... More about our weather records

Advertising

Bathurst weather history for previous 24 hours

 ConditionsComfort  
Time TempWeatherWind HumidityBarometerVisibility
6:00 AM
Jul 24
59 °FPartly cloudy.6 mph82%29.77 "Hg15 mi
5:00 AM59 °FPartly cloudy.8 mph88%29.75 "Hg15 mi
4:00 AM61 °FPassing clouds.7 mph88%29.74 "Hg15 mi
3:00 AM63 °FPassing clouds.7 mph83%29.73 "Hg15 mi
2:00 AM63 °FPassing clouds.5 mph88%29.71 "Hg15 mi
1:00 AM66 °FPassing clouds.5 mph83%29.70 "Hg15 mi
12:00 AM66 °FPassing clouds.6 mph88%29.69 "Hg15 mi
11:00 PM
Jul 23
68 °FPassing clouds.3 mph88%29.67 "Hg15 mi
10:00 PM68 °FBroken clouds.6 mph94%29.67 "Hg12 mi
9:00 PM68 °FSprinkles. Broken clouds.6 mph94%29.65 "Hg12 mi
8:00 PM73 °FRain showers. Mostly cloudy.7 mph89%29.62 "Hg10 mi
7:55 PM75 °FSprinkles. Mostly cloudy.9 mph83%29.62 "Hg15 mi
7:00 PM77 °FBroken clouds.12 mph79%29.59 "Hg15 mi
6:00 PM75 °FPartly sunny.9 mph89%29.58 "Hg15 mi
5:48 PM75 °FPartly sunny.8 mph89%29.58 "Hg15 mi
5:00 PM79 °FThunderstorms. Mostly cloudy.15 mph74%29.59 "Hg12 mi
4:52 PM81 °FSprinkles. Mostly cloudy.18 mph70%29.60 "Hg15 mi
4:00 PM88 °FBroken clouds.17 mph52%29.58 "Hg15 mi
3:00 PM88 °FBroken clouds.25 mph52%29.59 "Hg15 mi
2:00 PM90 °FScattered clouds.23 mph46%29.58 "Hg15 mi
1:00 PM88 °FPassing clouds.18 mph46%29.59 "Hg15 mi
12:00 PM88 °FPassing clouds.17 mph46%29.61 "Hg15 mi
11:00 AM84 °FScattered clouds.13 mph51%29.63 "Hg15 mi
10:00 AM81 °FPartly sunny.8 mph66%29.65 "Hg15 mi
9:00 AM75 °FOvercast.9 mph74%29.68 "Hg15 mi
8:00 AM72 °FOvercast.8 mph83%29.70 "Hg15 mi
Weather by CustomWeather, © 2014

See weather overviewHow to use our weather pages